Home   Weather   Cruz Bay   Past weeks

Flag for US Virgin Islands Past Weather in Cruz Bay, US Virgin Islands — Yesterday and Last 2 Weeks

Now
84 °F

Passing clouds.


Feels Like: 93 °F
Forecast: 81 / 87 °F
Wind: 10 mph from Northeast

Location: Cyril E. King International Airport

Current Time: Sep 25, 2016 at 10:04:28 PM

Latest Report: Sep 25, 2016 at 8:53 PM


Visibility: 10 mi

Pressure: 29.97 "Hg

Humidity: 77%

Dew Point: 76 °F

Location of Cruz BayLocation

Past Weather in Cruz Bay — Graph

°F

Cruz Bay Temperature Yesterday

Maximum temperature yesterday: 89 °F (at 11:53 AM)
Minimum temperature yesterday: 81 °F (at 5:53 AM)
Average temperature yesterday: 85 °F

High & Low Weather Summary for the Past Weeks

 TemperatureHumidityPressure
High91 °F (Sep 16, 1:53 PM)100% (Sep 18, 8:36 AM)30.08 "Hg (Sep 18, 8:36 AM)
Low77 °F (Sep 18, 9:04 AM)56% (Sep 16, 11:53 AM)29.84 "Hg (Sep 21, 3:53 PM)
Average84 °F79%29.96 "Hg
* Reported Sep 10 8:53 PM — Sep 25 8:53 PM, Cruz Bay, Weather by CustomWeather, © 2016

Note: Actual official high and low records may vary slightly from our data, if they occured in-between our weather recording intervals... More about our weather records

Advertising

Cruz Bay Weather History for the Previous 24 Hours

Scroll right to see more
 ConditionsComfort  
Time TempWeatherWind HumidityBarometerVisibility
8:53 PM
Sun, Sep 25
84 °FPassing clouds.10 mph77%29.97 "Hg10 mi
7:53 PM84 °FClear.8 mph77%29.95 "Hg10 mi
6:53 PM85 °FClear.8 mph77%29.94 "Hg10 mi
5:53 PM86 °FSunny.10 mph75%29.93 "Hg10 mi
4:53 PM88 °FSunny.8 mph70%29.92 "Hg10 mi
3:53 PM87 °FPartly sunny.7 mph69%29.91 "Hg10 mi
3:32 PM88 °FOvercast.9 mph66%29.91 "Hg10 mi
2:53 PM88 °FPartly sunny.5 mph67%29.92 "Hg10 mi
1:53 PM90 °FPassing clouds.13 mph61%29.94 "Hg10 mi
12:53 PM89 °FPassing clouds.13 mph63%29.96 "Hg10 mi
11:53 AM89 °FPassing clouds.12 mph68%29.97 "Hg10 mi
10:53 AM88 °FPassing clouds.9 mph70%29.99 "Hg10 mi
9:53 AM89 °FPartly sunny.No wind65%29.99 "Hg10 mi
8:53 AM87 °FSunny.9 mph67%29.98 "Hg10 mi
7:53 AM85 °FSunny.8 mph77%29.97 "Hg10 mi
6:53 AM82 °FSunny.5 mph85%29.96 "Hg10 mi
5:53 AM81 °FClear.No wind85%29.95 "Hg10 mi
4:53 AM81 °FClear.3 mph85%29.93 "Hg10 mi
3:53 AM81 °FClear.3 mph88%29.93 "Hg10 mi
2:53 AM81 °FClear.No wind85%29.93 "Hg10 mi
1:53 AM82 °FClear.No wind85%29.96 "Hg10 mi
12:53 AM82 °FClear.No wind88%29.98 "Hg10 mi
11:53 PM
Sat, Sep 24
82 °FClear.No wind85%29.99 "Hg10 mi
10:53 PM83 °FClear.3 mph79%30.00 "Hg10 mi
Weather by CustomWeather, © 2016

See weather overviewHow to use our weather pages